Location: Kumla
(59.1265°N, 15.1401°E)
Time: 19:42:42
(UTC+01:00)

Vanguard 3 - Pass Details

Date: 12 December 2023
Orbit: 508 x 3239 km, 33.4° (Epoch: 03 March)

Event Time Altitude Azimuth Distance (km) Brightness Sun altitude
Rises 19:47:24 0° 221° (SW) 7,002 12.3 -34.2°
Reaches altitude 10° 19:54:34 10° 206° (SSW) 5,635 11.5 -35.1°
Maximum altitude 20:03:41 18° 172° (S) 4,326 10.6 -36.2°
Enters shadow 20:03:53 18° 171° (S) 4,309 10.6 -36.3°
Drops below altitude 10° 20:10:50 10° 136° (SE) 4,270 - -37.1°
Sets 20:15:05 0° 118° (ESE) 4,788 - -37.6°
